{"data":{"norad_id":59450,"intl_designator":"2024-066J","name":"HAWK-9B","alt_names":[],"object_type":"PAYLOAD","status":"ACTIVE","operator":null,"country":"US","launch_date":"2024-04-07","launch_site_code":"AFETR","launch_vehicle":null,"mission":null,"orbit_class":"UNKNOWN","rcs_meters":null,"size_class":null,"mass_kg":null,"dimensions":null,"purposes":[],"wikipedia_slug":null,"has_3d_model":false,"image_url":null,"decayed_at":null,"tle_current":{"epoch":"2026-05-25T00:14:17.342016Z","epoch_age_seconds":81111,"freshness":"FRESH","line1":"1 59450U 24066J   26145.00992294  .00000775  00000+0  81718-4 0  9991","line2":"2 59450  45.6194  37.9384 0003918 261.3553  98.6884 14.99055682116352","mean_motion":14.99055682,"eccentricity":0.0003918,"inclination_deg":45.6194,"raan_deg":37.9384,"arg_perigee_deg":261.3553,"mean_anomaly_deg":98.6884,"bstar":8.1718e-5,"rev_number":11635,"period_min":96.060474423391,"perigee_km":567.09047788196,"apogee_km":572.53489125479,"semimajor_km":6947.9496845684,"source":"CELESTRAK","updated_at":"2026-05-25T13:38:01.426414Z"}}}